This is the latest recevied weather packets stored in our database for station/object EA3KZ-1. If no packets are shown the sender has not sent any weather packets the latest 10 day(s).
| Time | Temp. | Humidity | Pressure | Rain* | Wind** | Luminosity | Snow |
|---|---|---|---|---|---|---|---|
| 1788137149 | 21.67° C | 53% | 1013.9 hPa | 0 mm | - | - | - |
| 1788136546 | 21.67° C | 52% | 1013.8 hPa | 0 mm | - | - | - |
| 1788135944 | 21.67° C | 53% | 1013.8 hPa | 0 mm | - | - | - |
| 1788135341 | 21.67° C | 57% | 1013.7 hPa | 0 mm | - | - | - |
| 1788134739 | 21.67° C | 59% | 1013.7 hPa | 0 mm | - | - | - |
| 1788134136 | 21.67° C | 58% | 1013.8 hPa | 0 mm | - | - | - |
| 1788133533 | 21.67° C | 58% | 1013.8 hPa | 0 mm | - | - | - |
| 1788132931 | 21.67° C | 62% | 1014.1 hPa | 0 mm | - | - | - |
| 1788132328 | 22.22° C | 61% | 1014.1 hPa | 0 mm | - | - | - |
| 1788131726 | 21.67° C | 63% | 1014 hPa | 0 mm | - | - | - |
| 1788131123 | 21.67° C | 67% | 1014 hPa | 0 mm | - | - | - |
| 1788130521 | 21.67° C | 64% | 1014.1 hPa | 0 mm | - | - | - |
| 1788129918 | 21.67° C | 67% | 1014.1 hPa | 0 mm | - | - | - |
| 1788129315 | 22.22° C | 69% | 1014.1 hPa | 0 mm | - | - | - |
| 1788128773 | 22.22° C | 71% | 1014.1 hPa | 0 mm | - | - | - |
| 1788128170 | 22.22° C | 68% | 1014 hPa | 0 mm | - | - | - |
| 1788127568 | 22.78° C | 66% | 1013.8 hPa | 0 mm | - | - | - |
| 1788126965 | 22.78° C | 64% | 1013.9 hPa | 0 mm | - | - | - |
| 1788126363 | 22.78° C | 66% | 1013.9 hPa | 0 mm | - | - | - |
| 1788125760 | 23.33° C | 65% | 1013.8 hPa | 0 mm | - | - | - |
| 1788125157 | 22.78° C | 62% | 1013.7 hPa | 0 mm | - | - | - |
| 1788124555 | 22.78° C | 58% | 1013.7 hPa | 0 mm | - | - | - |
| 1788123952 | 23.33° C | 58% | 1013.8 hPa | 0 mm | - | - | - |
| 1788123350 | 23.33° C | 59% | 1013.8 hPa | 0 mm | - | - | - |
| 1788122747 | 23.33° C | 58% | 1013.9 hPa | 0 mm | - | - | - |
* Rain latest hour (hover to see other rain measurements)
** Current wind speed in m/s (hover to see current wind gust speed)